| time (UTC) | temp C | wind direction | speed KPH | gust KPH | rain 1hr cm | rain 24hr cm | rain mn cm | humidity % | barometer mb |
| 20260504100402 | 10 | 0 | 0.0 | 0.0 | 0.00 | 0.00 | 0.00 | 65 | 1011.4 |
| 20260504081407 | 11 | 0 | 0.0 | 0.0 | 0.00 | 0.00 | 0.00 | 61 | 1011.0 |
| 20260504045127 | 17 | 3 | 0.0 | 1.6 | 0.00 | 0.00 | 0.00 | 48 | 1010.4 |
| 20260504044202 | 0 | 3 | 0.0 | 1.6 | 0.00 | 0.00 | 0.00 | 100 | 1010.2 |
| 20260504043342 | 18 | 0 | 0.0 | 0.0 | 0.00 | 0.00 | 0.00 | 51 | 1010.2 |
| 20260504042432 | 18 | 0 | 0.0 | 0.0 | 0.00 | 0.00 | 0.00 | 45 | 1010.2 |
| 20260504041552 | 19 | 279 | 0.0 | 1.6 | 0.00 | 0.00 | 0.00 | 43 | 1010.2 |
| 20260504040727 | 19 | 0 | 0.0 | 0.0 | 0.00 | 0.00 | 0.00 | 43 | 1010.0 |
| 20260504035912 | 20 | 0 | 0.0 | 0.0 | 0.00 | 0.00 | 0.00 | 40 | 1010.0 |
| 20260504034936 | 21 | 0 | 0.0 | 0.0 | 0.00 | 0.00 | 0.00 | 39 | 1009.8 |
| 20260504033122 | 22 | 278 | 0.0 | 1.6 | 0.00 | 0.00 | 0.00 | 36 | 1009.8 |
| 20260504032312 | 22 | 0 | 0.0 | 0.0 | 0.00 | 0.00 | 0.00 | 35 | 1009.8 |
| 20260504031417 | 23 | 0 | 0.0 | 0.0 | 0.00 | 0.00 | 0.00 | 35 | 1009.7 |
| 20260504030517 | 23 | 0 | 0.0 | 0.0 | 0.00 | 0.00 | 0.00 | 33 | 1009.9 |
| 20260504025708 | 24 | 0 | 0.0 | 0.0 | 0.00 | 0.00 | 0.00 | 32 | 1009.7 |
| 20260504024017 | 25 | 0 | 0.0 | 0.0 | 0.00 | 0.00 | 0.00 | 28 | 1009.6 |
| 20260504023217 | 26 | 0 | 0.0 | 0.0 | 0.00 | 0.00 | 0.00 | 27 | 1009.7 |
| 20260504022256 | 26 | 288 | 0.0 | 1.6 | 0.00 | 0.00 | 0.00 | 26 | 1009.7 |
| 20260504020422 | 28 | 277 | 0.0 | 1.6 | 0.00 | 0.00 | 0.00 | 22 | 1009.8 |
| 20260504015437 | 28 | 290 | 1.6 | 3.2 | 0.00 | 0.00 | 0.00 | 22 | 1009.7 |
| 20260504014513 | 28 | 281 | 0.0 | 1.6 | 0.00 | 0.00 | 0.00 | 23 | 1009.6 |
| 20260504013622 | 28 | 0 | 0.0 | 0.0 | 0.00 | 0.00 | 0.00 | 22 | 1009.8 |
| 20260504012705 | 27 | 293 | 0.0 | 1.6 | 0.00 | 0.00 | 0.00 | 24 | 1009.9 |
| 20260504011832 | 28 | 272 | 0.0 | 1.6 | 0.00 | 0.00 | 0.00 | 23 | 1009.9 |
| 20260504011027 | 30 | 283 | 0.0 | 3.2 | 0.00 | 0.00 | 0.00 | 21 | 1010.1 |
| 20260504010052 | 30 | 298 | 0.0 | 1.6 | 0.00 | 0.00 | 0.00 | 22 | 1010.1 |
| 20260504005220 | 30 | 272 | 0.0 | 1.6 | 0.00 | 0.00 | 0.00 | 21 | 1010.2 |
| 20260504003242 | 0 | 214 | 0.0 | 1.6 | 0.00 | 0.00 | 0.00 | 100 | 1010.5 |
| 20260504000737 | 29 | 304 | 1.6 | 4.8 | 0.00 | 0.00 | 0.00 | 20 | 1010.7 |
| 20260503235935 | 31 | 327 | 1.6 | 6.4 | 0.00 | 0.00 | 0.00 | 18 | 1010.7 |
| 20260503234947 | 29 | 296 | 1.6 | 3.2 | 0.00 | 0.00 | 0.00 | 21 | 1010.8 |
| 20260503234117 | 29 | 298 | 0.0 | 1.6 | 0.00 | 0.00 | 0.00 | 21 | 1011.0 |
| 20260503233132 | 30 | 281 | 0.0 | 1.6 | 0.00 | 0.00 | 0.00 | 21 | 1010.9 |
| 20260503232157 | 0 | 286 | 1.6 | 3.2 | 0.00 | 0.00 | 0.00 | 100 | 1011.2 |
| 20260503230327 | 33 | 272 | 3.2 | 4.8 | 0.00 | 0.00 | 0.00 | 16 | 1011.5 |
| 20260503225447 | 28 | 295 | 3.2 | 4.8 | 0.00 | 0.00 | 0.00 | 21 | 1011.5 |
| 20260503224517 | 28 | 261 | 1.6 | 3.2 | 0.00 | 0.00 | 0.00 | 21 | 1011.7 |
| 20260503223537 | 28 | 295 | 1.6 | 4.8 | 0.00 | 0.00 | 0.00 | 22 | 1011.7 |
| 20260503222602 | 32 | 285 | 1.6 | 3.2 | 0.00 | 0.00 | 0.00 | 20 | 1011.8 |
| 20260503221623 | 37 | 299 | 1.6 | 4.8 | 0.00 | 0.00 | 0.00 | 15 | 1012.1 |
| 20260503220632 | 37 | 288 | 1.6 | 4.8 | 0.00 | 0.00 | 0.00 | 15 | 1012.0 |
| 20260503214822 | 26 | 295 | 0.0 | 3.2 | 0.00 | 0.00 | 0.00 | 24 | 1012.4 |
| 20260503214022 | 26 | 301 | 3.2 | 6.4 | 0.00 | 0.00 | 0.00 | 24 | 1012.5 |
| 20260503213127 | 26 | 287 | 0.0 | 4.8 | 0.00 | 0.00 | 0.00 | 24 | 1012.7 |
| 20260503205727 | 0 | 121 | 0.0 | 3.2 | 0.00 | 0.00 | 0.00 | 100 | 1013.2 |
| 20260503203942 | 24 | 198 | 1.6 | 3.2 | 0.00 | 0.00 | 0.00 | 26 | 1013.5 |
| 20260503202216 | 23 | 270 | 1.6 | 3.2 | 0.00 | 0.00 | 0.00 | 26 | 1013.8 |
| 20260503201341 | 22 | 290 | 3.2 | 4.8 | 0.00 | 0.00 | 0.00 | 29 | 1013.9 |
| 20260503194707 | 21 | 282 | 0.0 | 1.6 | 0.00 | 0.00 | 0.00 | 33 | 1014.3 |
| 20260503192901 | 20 | 222 | 0.0 | 1.6 | 0.00 | 0.00 | 0.00 | 33 | 1014.6 |
| 20260503192017 | 20 | 299 | 3.2 | 4.8 | 0.00 | 0.00 | 0.00 | 34 | 1014.9 |
| 20260503191017 | 20 | 93 | 0.0 | 1.6 | 0.00 | 0.00 | 0.00 | 35 | 1015.1 |
| 20260503190117 | 20 | 305 | 1.6 | 4.8 | 0.00 | 0.00 | 0.00 | 36 | 1015.3 |
| 20260503185222 | 20 | 256 | 1.6 | 4.8 | 0.00 | 0.00 | 0.00 | 37 | 1015.5 |
| 20260503184327 | 19 | 298 | 0.0 | 1.6 | 0.00 | 0.00 | 0.00 | 39 | 1015.6 |
| 20260503183402 | 0 | 289 | 1.6 | 6.4 | 0.00 | 0.00 | 0.00 | 100 | 1015.8 |
| 20260503182542 | 18 | 299 | 0.0 | 3.2 | 0.00 | 0.00 | 0.00 | 39 | 1015.8 |
| 20260503180637 | 17 | 301 | 1.6 | 3.2 | 0.00 | 0.00 | 0.00 | 40 | 1016.1 |
| 20260503174836 | 17 | 306 | 0.0 | 3.2 | 0.00 | 0.00 | 0.00 | 42 | 1016.3 |
| 20260503171337 | 16 | 0 | 0.0 | 0.0 | 0.00 | 0.00 | 0.00 | 47 | 1016.7 |
| 20260503170348 | 15 | 0 | 0.0 | 0.0 | 0.00 | 0.00 | 0.00 | 49 | 1016.8 |
| 20260503150827 | 11 | 0 | 0.0 | 0.0 | 0.00 | 0.00 | 0.00 | 61 | 1017.5 |